• In Belarus
  • List of Countries
  • For 7 days
  • Water Temperature
  • Weather Map
  • Weather Widgets
  • user-avatar
    Login

    Hourly Weather Elda

    Today, 19 January, Sunday

    Time Temperature Precipitation Wind Pressure Humidity
    00:00 +8°C° 0 mm 2 mps 724 mmHg 86%
    01:00 +8°C° 0 mm 2 mps 724 mmHg 86%
    02:00 +8°C° 0 mm 2 mps 723 mmHg 86%
    03:00 +8°C° 0 mm 2 mps 723 mmHg 86%
    04:00 +7°C° 0 mm 2 mps 722 mmHg 86%
    05:00 +7°C° 0 mm 3 mps 721 mmHg 86%
    06:00 +5°C° 0 mm 3 mps 721 mmHg 86%
    07:00 +6°C° 0.3 mm 4 mps 721 mmHg 85%
    08:00 +6°C° 0.3 mm 4 mps 721 mmHg 84%
    09:00 +7°C° 0.3 mm 4 mps 721 mmHg 83%
    10:00 +7°C° 1.3 mm 5 mps 721 mmHg 83%
    11:00 +6°C° 1.3 mm 7 mps 721 mmHg 83%
    12:00 +6°C° 1.3 mm 8 mps 721 mmHg 83%
    13:00 +5°C° 3.2 mm 9 mps 721 mmHg 85%
    14:00 +3°C° 3.2 mm 9 mps 721 mmHg 87%
    15:00 +2°C° 3.2 mm 10 mps 721 mmHg 89%
    16:00 +2°C° 4 mm 12 mps 721 mmHg 89%
    17:00 +1°C° 4 mm 13 mps 721 mmHg 89%
    18:00 +2°C° 4 mm 15 mps 721 mmHg 89%
    19:00 +1°C° 2.9 mm 16 mps 721 mmHg 89%
    20:00 +1°C° 2.9 mm 17 mps 721 mmHg 89%
    21:00 -1°C° 2.9 mm 18 mps 721 mmHg 89%
    22:00 +1°C° 5.2 mm 17 mps 721 mmHg 90%
    23:00 +1°C° 5.2 mm 16 mps 721 mmHg 91%

    Tomorrow, 20 January, Monday

    Time Temperature Precipitation Wind Pressure Humidity
    00:00 +1°C° 5.2 mm 15 mps 721 mmHg 92%
    01:00 +1°C° 5.3 mm 15 mps 721 mmHg 92%
    02:00 0°C° 5.3 mm 14 mps 721 mmHg 92%
    03:00 0°C° 5.3 mm 13 mps 721 mmHg 92%
    04:00 +1°C° 4.4 mm 13 mps 721 mmHg 92%
    05:00 +2°C° 4.4 mm 12 mps 721 mmHg 92%
    06:00 +2°C° 4.4 mm 12 mps 721 mmHg 92%
    07:00 +2°C° 4 mm 10 mps 721 mmHg 93%
    08:00 +2°C° 4 mm 9 mps 722 mmHg 94%
    09:00 +2°C° 4 mm 8 mps 722 mmHg 95%
    10:00 +3°C° 4 mm 7 mps 722 mmHg 95%
    11:00 +3°C° 4 mm 6 mps 722 mmHg 95%
    12:00 +3°C° 4 mm 5 mps 722 mmHg 94%
    13:00 +4°C° 3.4 mm 6 mps 721 mmHg 94%
    14:00 +4°C° 3.4 mm 6 mps 721 mmHg 94%
    15:00 +4°C° 3.4 mm 7 mps 721 mmHg 94%
    16:00 +4°C° 1.3 mm 6 mps 721 mmHg 94%
    17:00 +5°C° 1.3 mm 5 mps 721 mmHg 95%
    18:00 +6°C° 1.3 mm 4 mps 721 mmHg 95%
    19:00 +6°C° 0.9 mm 4 mps 722 mmHg 95%
    20:00 +5°C° 0.9 mm 3 mps 722 mmHg 95%
    21:00 +5°C° 0.9 mm 3 mps 722 mmHg 95%
    22:00 +5°C° 1 mm 3 mps 722 mmHg 95%
    23:00 +7°C° 1 mm 3 mps 722 mmHg 95%

    Day after tomorrow, 21 January, Tuesday

    Time Temperature Precipitation Wind Pressure Humidity
    00:00 +7°C° 1 mm 3 mps 722 mmHg 95%
    01:00 +7°C° 1.6 mm 3 mps 721 mmHg 96%
    02:00 +6°C° 1.6 mm 4 mps 721 mmHg 96%
    03:00 +6°C° 1.6 mm 4 mps 720 mmHg 96%
    04:00 +6°C° 2.4 mm 4 mps 720 mmHg 95%
    05:00 +6°C° 2.4 mm 4 mps 719 mmHg 94%
    06:00 +6°C° 2.4 mm 4 mps 719 mmHg 94%
    07:00 +6°C° 1.1 mm 4 mps 719 mmHg 93%
    08:00 +7°C° 1.1 mm 5 mps 719 mmHg 92%
    09:00 +7°C° 1.1 mm 6 mps 719 mmHg 91%
    10:00 +7°C° 1.9 mm 6 mps 718 mmHg 89%
    11:00 +8°C° 1.9 mm 7 mps 718 mmHg 88%
    12:00 +7°C° 1.9 mm 8 mps 718 mmHg 87%
    13:00 +7°C° 0.3 mm 8 mps 718 mmHg 83%
    14:00 +7°C° 0.3 mm 8 mps 718 mmHg 80%
    15:00 +9°C° 0.3 mm 8 mps 718 mmHg 76%
    16:00 +8°C° 0.2 mm 6 mps 718 mmHg 81%
    17:00 +7°C° 0.2 mm 5 mps 719 mmHg 86%
    18:00 +6°C° 0.2 mm 4 mps 719 mmHg 92%
    19:00 +7°C° 0.4 mm 3 mps 720 mmHg 92%
    20:00 +7°C° 0.4 mm 3 mps 720 mmHg 92%
    21:00 +7°C° 0.4 mm 3 mps 721 mmHg 93%
    22:00 +5°C° 0.2 mm 3 mps 721 mmHg 93%
    23:00 +6°C° 0.2 mm 2 mps 721 mmHg 92%

    22 January, Wednesday

    Time Temperature Precipitation Wind Pressure Humidity
    00:00 +6°C° 0.2 mm 2 mps 721 mmHg 92%
    01:00 +6°C° 0 mm 2 mps 721 mmHg 92%
    02:00 +6°C° 0 mm 2 mps 721 mmHg 91%
    03:00 +5°C° 0 mm 2 mps 721 mmHg 91%
    04:00 +5°C° 0 mm 2 mps 721 mmHg 89%
    05:00 +6°C° 0 mm 2 mps 721 mmHg 88%
    06:00 +6°C° 0 mm 2 mps 721 mmHg 87%
    07:00 +6°C° 0 mm 2 mps 722 mmHg 87%
    08:00 +7°C° 0 mm 3 mps 722 mmHg 87%
    09:00 +7°C° 0 mm 3 mps 722 mmHg 87%
    10:00 +8°C° 0 mm 2 mps 722 mmHg 83%
    11:00 +9°C° 0 mm 2 mps 722 mmHg 79%
    12:00 +10°C° 0 mm 2 mps 722 mmHg 75%
    13:00 +11°C° 0.2 mm 1 mps 722 mmHg 72%
    14:00 +11°C° 0.2 mm 1 mps 722 mmHg 69%
    15:00 +12°C° 0.2 mm 1 mps 721 mmHg 66%
    16:00 +10°C° 0 mm 1 mps 722 mmHg 73%
    17:00 +9°C° 0 mm 1 mps 722 mmHg 79%
    18:00 +7°C° 0 mm 1 mps 722 mmHg 86%
    19:00 +7°C° 0 mm 1 mps 722 mmHg 86%
    20:00 +7°C° 0 mm 1 mps 723 mmHg 87%
    21:00 +7°C° 0 mm 1 mps 723 mmHg 87%
    22:00 +6°C° 0 mm 1 mps 723 mmHg 87%
    23:00 +6°C° 0 mm 1 mps 723 mmHg 87%

    23 January, Thursday

    Time Temperature Precipitation Wind Pressure Humidity
    00:00 +6°C° 0 mm 1 mps 723 mmHg 87%
    01:00 +6°C° 0 mm 1 mps 723 mmHg 87%
    02:00 +6°C° 0 mm 1 mps 723 mmHg 87%
    03:00 +5°C° 0 mm 2 mps 723 mmHg 88%
    04:00 +5°C° 0 mm 2 mps 723 mmHg 87%
    05:00 +5°C° 0 mm 2 mps 723 mmHg 87%
    06:00 +4°C° 0 mm 3 mps 723 mmHg 86%
    07:00 +5°C° 0 mm 3 mps 723 mmHg 85%
    08:00 +7°C° 0 mm 3 mps 724 mmHg 83%
    09:00 +7°C° 0 mm 4 mps 724 mmHg 81%
    10:00 +8°C° 0 mm 4 mps 725 mmHg 76%
    11:00 +9°C° 0 mm 5 mps 725 mmHg 71%
    12:00 +12°C° 0 mm 5 mps 725 mmHg 67%
    13:00 +12°C° 0 mm 5 mps 725 mmHg 65%
    14:00 +12°C° 0 mm 5 mps 724 mmHg 63%
    15:00 +12°C° 0 mm 5 mps 724 mmHg 61%
    16:00 +11°C° 0 mm 4 mps 724 mmHg 67%
    17:00 +8°C° 0 mm 4 mps 724 mmHg 74%
    18:00 +8°C° 0 mm 3 mps 724 mmHg 80%
    19:00 +8°C° 0 mm 3 mps 725 mmHg 81%
    20:00 +7°C° 0 mm 3 mps 725 mmHg 81%
    21:00 +7°C° 0 mm 3 mps 726 mmHg 81%
    22:00 +7°C° 0 mm 3 mps 726 mmHg 81%
    23:00 +7°C° 0 mm 2 mps 726 mmHg 81%

    24 January, Friday

    Time Temperature Precipitation Wind Pressure Humidity
    00:00 +6°C° 0 mm 2 mps 726 mmHg 81%
    01:00 +6°C° 0 mm 2 mps 726 mmHg 83%
    02:00 +6°C° 0 mm 2 mps 726 mmHg 84%
    03:00 +6°C° 0 mm 2 mps 725 mmHg 86%
    04:00 +6°C° 0 mm 2 mps 725 mmHg 87%
    05:00 +7°C° 0 mm 1 mps 725 mmHg 88%
    06:00 +6°C° 0 mm 1 mps 725 mmHg 89%
    07:00 +8°C° 0 mm 1 mps 726 mmHg 85%
    08:00 +9°C° 0 mm 1 mps 726 mmHg 82%
    09:00 +10°C° 0 mm 1 mps 727 mmHg 78%
    10:00 +10°C° 0 mm 2 mps 727 mmHg 72%
    11:00 +12°C° 0 mm 2 mps 727 mmHg 65%
    12:00 +13°C° 0 mm 3 mps 727 mmHg 58%
    13:00 +13°C° 0 mm 3 mps 727 mmHg 58%
    14:00 +13°C° 0 mm 3 mps 726 mmHg 58%
    15:00 +13°C° 0 mm 4 mps 726 mmHg 58%
    16:00 +11°C° 0 mm 3 mps 726 mmHg 66%
    17:00 +9°C° 0 mm 2 mps 726 mmHg 74%
    18:00 +8°C° 0 mm 2 mps 726 mmHg 81%
    19:00 +8°C° 0 mm 2 mps 726 mmHg 81%
    20:00 +7°C° 0 mm 2 mps 726 mmHg 80%
    21:00 +7°C° 0 mm 2 mps 727 mmHg 80%
    22:00 +7°C° 0 mm 2 mps 727 mmHg 80%
    23:00 +7°C° 0 mm 2 mps 726 mmHg 81%
    Show more